Thompson, Ohio, United States (44086)
Lat: 41.69N, Lon: 81.05W
Wx Zone: OHZ013
Local Info
Past Weather Observations for Saturday, July 25, 2015

NOTE: This archive is for the closest National Weather Service station to Thompson. Information may differ from the station used for current weather conditions.

Click here for Long-term Archive

Time Weather Temperature Dewpoint Humidity Pressure Winds Precip Visibility
23:53
Overcast
72°F / 22°C 68°F / 20°C 88% 29.95 in
(1014 mb)
Calm - 10SM
22:53
Overcast
72°F / 22°C 66°F / 19°C 83% 29.95 in
(1014 mb)
SE 4.6 mph
(SE 7 kph)
- 10SM
21:53
Partly Cloudy
75°F / 24°C 66°F / 19°C 74% 29.95 in
(1014 mb)
Calm - 10SM
20:53
Clear
75°F / 24°C 66°F / 19°C 74% 29.95 in
(1014 mb)
SSW 5.8 mph
(SSW 9 kph)
- 10SM
19:53
Clear
75°F / 24°C 66°F / 19°C 74% 29.92 in
(1013 mb)
SSE 3.5 mph
(SSE 6 kph)
- 10SM
18:53
Clear
81°F / 27°C 66°F / 19°C 62% 29.95 in
(1014 mb)
SSW 4.6 mph
(SSW 7 kph)
- 10SM
17:53
Mostly Cloudy
81°F / 27°C 63°F / 17°C 54% 29.95 in
(1014 mb)
NW 3.5 mph
(NW 6 kph)
- 10SM
16:53
Partly Cloudy
82°F / 28°C 64°F / 18°C 55% 29.95 in
(1014 mb)
NW 8.1 mph
(NW 13 kph)
- 10SM
15:53
Mostly Cloudy
84°F / 29°C 63°F / 17°C 48% 29.95 in
(1014 mb)
W 10.4 mph
(W 17 kph)
- 10SM
14:53
Partly Cloudy
84°F / 29°C 63°F / 17°C 48% 29.95 in
(1014 mb)
Calm - 10SM
13:53
Partly Cloudy
84°F / 29°C 64°F / 18°C 51% 29.98 in
(1015 mb)
Variable 3.5 mph
(Variable 6 kph)
- 10SM
12:53
Mostly Cloudy
84°F / 29°C 61°F / 16°C 45% 29.98 in
(1015 mb)
W 8.1 mph
(W 13 kph)
- 10SM
11:53
Partly Cloudy
84°F / 29°C 59°F / 15°C 43% 30.01 in
(1016 mb)
SSW 9.2 mph
(SSW 15 kph)
- 10SM
10:53
Clear
82°F / 28°C 63°F / 17°C 51% 30.01 in
(1016 mb)
SW 9.2 mph
(SW 15 kph)
- 10SM
09:53
Clear
81°F / 27°C 61°F / 16°C 51% 30.01 in
(1016 mb)
SW 8.1 mph
(SW 13 kph)
- 10SM
08:53
Clear
79°F / 26°C 61°F / 16°C 54% 30.01 in
(1016 mb)
SW 8.1 mph
(SW 13 kph)
- 10SM
07:53
Partly Cloudy
73°F / 23°C 61°F / 16°C 65% 30.04 in
(1017 mb)
SW 6.9 mph
(SW 11 kph)
- 10SM
06:53
Clear
66°F / 19°C 59°F / 15°C 78% 30.04 in
(1017 mb)
S 5.8 mph
(S 9 kph)
- 10SM
05:53
Clear
63°F / 17°C 59°F / 15°C 88% 30.04 in
(1017 mb)
Calm - 10SM
04:53
Clear
63°F / 17°C 57°F / 14°C 83% 30.01 in
(1016 mb)
SSE 3.5 mph
(SSE 6 kph)
- 10SM
03:53
Clear
63°F / 17°C 57°F / 14°C 83% 30.01 in
(1016 mb)
S 3.5 mph
(S 6 kph)
- 10SM
02:53
Partly Cloudy
64°F / 18°C 57°F / 14°C 78% 30.01 in
(1016 mb)
Calm - 10SM
01:53
Mostly Cloudy
66°F / 19°C 57°F / 14°C 73% 30.01 in
(1016 mb)
SSE 3.5 mph
(SSE 6 kph)
- 10SM
00:53
Overcast
66°F / 19°C 57°F / 14°C 73% 30.01 in
(1016 mb)
Calm - 10SM
Time Weather Temperature Dewpoint Humidity Pressure Winds Precip Visibility


Weather for websites

WeatherForYou.com, LLC is not responsible for any damages or problems caused by this service. Current weather conditions are obtained from the closest station including government and personal stations which may have varying degrees of accuracy. Weather forecasts are derived from the NOAA NDFD. Like all things, this site belongs to Jesus Christ... He just trusts us to maintain it. If you have any questions or comments email webmaster@weatherforyou.com

Copyright © 2015, WeatherForYou.com LLC. All rights reserved.